Location: *
(43.7000°S, 168.7000°W)
Time: 14:08:13
(UTC+00:00)

Okean 2 - Pass Details

Date: 07 July 2020
Orbit: 559 x 578 km, 82.5° (Epoch: 03 August)

Event Time Altitude Azimuth Distance (km) Brightness Sun altitude
Rises 17:12:05 0° 327° (NNW) 2,751 6.7 -16.7°
Reaches altitude 10° 17:14:27 10° 316° (NW) 1,867 5.7 -16.3°
Maximum altitude 17:18:04 29° 254° (WSW) 1,066 4.2 -15.6°
Drops below altitude 10° 17:21:45 10° 193° (SSW) 1,900 5.8 -15.0°
Sets 17:24:12 0° 181° (S) 2,810 6.7 -14.6°
